Tracking 19254 objects as of 21-Oct-2018
HD Live streaming from Space Station
objects crossing your sky now

CSUNSAT1

Track CSUNSAT1 now!
10-day predictions
CSUNSAT1 is classified as:


NORAD ID: 42715
Int'l Code: 1998-067LW
Perigee: 349.5 km
Apogee: 354.4 km
Inclination: 51.6 °
Period: 91.4 minutes
Semi major axis: 6722 km
RCS: Unknown
Launch date: November 20, 1998
Source: United States (US)
Launch site: TYURATAM MISSILE AND SPACE COMPLEX (TTMTR)

Uplink (MHz):
Downlink (MHz): 437.400
Beacon (MHz): 437.400
Mode: 9600bps GMSK CW
Call sign: CSUNSAT1
Status: Inactive

aabbcc
Your satellite tracking list
Your tracking list is empty




NASA's NSSDC Master Catalog

Two Line Element Set (TLE):
1 42715U 98067LW  18294.52880039  .00030490  00000-0  20455-3 0  9993
2 42715  51.6334  72.4299 0003676 294.0509  66.0106 15.74946084 81407
Source of the keplerian elements: AFSPC